Flag for U.S.A. Weather past 2 weeks in Centennial, Colorado, U.S.A.

Now
78 °F

Passing clouds.


Feels Like: 77 °F
Forecast: 51 / 80 °F
Wind: 7 mph from East

Location: Centennial Airport

Current Time: Oct 24, 2014 at 2:32:37 PM

Latest Report: Oct 24, 2014 at 1:53 PM


Visibility: 10 mi

Pressure: 29.99 "Hg

Humidity: 9%

Dew point: 16 °F

Location of CentennialLocation

Historic Weather in Centennial — Graph

°F

Centennial temperature yesterday

Maximum temperature yesterday: 72 °F (at 3:53 PM)
Minimum temperature yesterday: 40 °F (at 4:53 AM)
Average temperature yesterday: 56 °F

Past Weeks' High & Low Weather Summary

 TemperatureHumidityPressure
High80 °F (Oct 15, 3:53 PM)97% (Oct 10, 2:53 AM)30.24 "Hg (Oct 10, 2:53 AM)
Low36 °F (Oct 13, 6:53 AM)11% (Oct 15, 3:53 PM)29.60 "Hg (Oct 12, 5:53 AM)
Average54 °F53%30.01 "Hg
* Reported Oct 9 12:53 PM — Oct 24 12:53 PM, Centennial, Weather by CustomWeather, © 2014

Note: Actual official high and low records may vary slightly from our data, if they occured in-between our weather recording intervals... More about our weather records

Advertising

Centennial weather history for previous 24 hours

 ConditionsComfort  
Time TempWeatherWind HumidityBarometerVisibility
12:53 PM
Oct 24
75 °FScattered clouds.5 mph11%30.02 "Hg10 mi
11:53 AM73 °FPartly sunny.6 mph13%30.04 "Hg10 mi
10:53 AM70 °FPartly sunny.9 mph18%30.07 "Hg10 mi
9:53 AM62 °FPartly sunny.3 mph37%30.11 "Hg10 mi
8:53 AM61 °FPartly sunny.12 mph24%30.11 "Hg10 mi
7:53 AM56 °FPassing clouds.6 mph33%30.09 "Hg10 mi
6:53 AM58 °FPassing clouds.7 mph27%30.06 "Hg10 mi
5:53 AM58 °FPassing clouds.10 mph27%30.03 "Hg10 mi
4:53 AM59 °FPassing clouds.8 mph26%30.01 "Hg10 mi
3:53 AM60 °FPassing clouds.13 mph26%29.98 "Hg10 mi
2:53 AM59 °FPassing clouds.10 mph28%30.00 "Hg10 mi
1:53 AM58 °FPassing clouds.8 mph32%30.00 "Hg10 mi
12:53 AM57 °FPassing clouds.12 mph34%30.00 "Hg10 mi
11:53 PM
Oct 23
60 °FPartly cloudy.12 mph30%30.00 "Hg10 mi
10:53 PM58 °FMostly cloudy.13 mph35%30.02 "Hg10 mi
9:53 PM55 °FPassing clouds.10 mph42%30.03 "Hg10 mi
8:53 PM53 °FPassing clouds.7 mph48%30.07 "Hg10 mi
7:53 PM57 °FPassing clouds.7 mph42%30.08 "Hg10 mi
6:53 PM59 °FScattered clouds.9 mph39%30.07 "Hg10 mi
5:53 PM65 °FScattered clouds.5 mph32%30.05 "Hg10 mi
4:53 PM69 °FPartly sunny.No wind24%30.02 "Hg10 mi
3:53 PM72 °FPartly sunny.No wind20%30.01 "Hg10 mi
2:53 PM71 °FBroken clouds.3 mph21%30.02 "Hg10 mi
Weather by CustomWeather, © 2014

See weather overviewHow to use our weather pages